User: anonymous   Login
Location: Unspecified
(0.0000°N, 0.0000°E)
Time: 07:44:40
(UTC+00:00)
Language:

STARLINK-31571 - Orbit

View from above orbital plane
View from above orbital plane
View from above satellite
View from above satellite

Ground track
Ground track

The orbit is defined by the following mean orbital elements,

1 59362U          26145.47299071 +.00000000 +00000-0 +86506-4 0 00004
2 59362  43.0010 186.4118 0001241 276.0844  83.9866 15.27567440    04
Epoch (UTC): 25 May 2026 11:21:06
Eccentricity: 0.0001241
inclination: 43.0010°
perigee height: 482 km
apogee height: 484 km
right ascension of ascending node: 186.4118°
argument of perigee: 276.0844°
revolutions per day: 15.27567440
mean anomaly at epoch: 83.9866°

The dashed part of the orbit path shows where the satellite is in the earth's shadow,  

DLR